Weather reports worldwide

Advertisment
Loch Glascarnoch, United Kingdom (3031): temperature & dewpoint: 07.12.2017 13:00:00 - 13.12.2017 13:00:00 (GMT)Loch Glascarnoch, United Kingdom (3031): temperature -20cm & temperature -100cm: 07.12.2017 13:00:00 - 13.12.2017 13:00:00 (GMT)Loch Glascarnoch, United Kingdom (3031): wind speed & gusts: 07.12.2017 13:00:00 - 13.12.2017 13:00:00 (GMT)Loch Glascarnoch, United Kingdom (3031): wind direction: 07.12.2017 13:00:00 - 13.12.2017 13:00:00 (GMT)Loch Glascarnoch, United Kingdom (3031): reduced air pressure: 07.12.2017 13:00:00 - 13.12.2017 13:00:00 (GMT)Loch Glascarnoch, United Kingdom (3031): visibility: 07.12.2017 13:00:00 - 13.12.2017 13:00:00 (GMT)Loch Glascarnoch, United Kingdom (3031): sunshine duration: 07.12.2017 13:00:00 - 13.12.2017 13:00:00 (GMT)Loch Glascarnoch, United Kingdom (3031): precipitation: 07.12.2017 13:00:00 - 13.12.2017 13:00:00 (GMT)
Date & Time tt [°C] td [°C] tt -20cm [°C] tt -100cm [°C] ff [km/h] ff [kn] fx [km/h] fx [kn] dd ppp [hPa] vv [km] sd [min] rr [mm]
13.12.2017 13:00:00 - - - - - - - - - - - - 0,2
13.12.2017 12:00:00 0,4 -0,3 - - 31 17 48 26 WNW 981,4 6 0 0,8
13.12.2017 11:00:00 2,0 -0,5 - - 34 18 54 29 W 980,8 50 0 1,2
13.12.2017 10:00:00 2,1 -0,6 - - 31 17 52 28 W 981,2 3,3 0 1,8
13.12.2017 09:00:00 2,9 -0,7 3,7 4,9 31 17 55 30 W 981,0 45 0 1,6
13.12.2017 08:00:00 2,2 1,0 - - 11 6 - - W 981,8 14 0 1,0
13.12.2017 07:00:00 2,0 0,6 - - 28 15 - - WSW 983,0 3,6 0 5,2
13.12.2017 06:00:00 2,4 0,6 - - 16 9 - - S 983,6 4,2 0 22,4
13.12.2017 05:00:00 3,1 1,1 - - 26 14 46 25 SSW 985,1 9 0 0,0
13.12.2017 04:00:00 3,2 -0,4 - - 11 6 - - SW 986,9 35 0 0,0
13.12.2017 03:00:00 3,4 -1,4 - - 28 15 - - W 988,2 45 0 0,0
13.12.2017 02:00:00 3,1 -1,2 - - 37 20 48 26 W 989,0 29 0 0,0
13.12.2017 01:00:00 1,9 0,3 - - 26 14 46 25 W 990,1 15 0 0,0
13.12.2017 00:00:00 1,9 0,4 - - 26 14 - - WNW 990,5 11 - 0,0
12.12.2017 23:00:00 2,0 0,7 - - 28 15 - - WNW 990,5 35 0 0,0
12.12.2017 22:00:00 2,5 0,0 - - 22 12 - - W 990,6 23 0 0,0
12.12.2017 21:00:00 2,7 0,4 - - 22 12 - - NW 990,9 35 0 0,0
12.12.2017 20:00:00 2,2 0,5 - - 11 6 - - ESE 991,2 35 0 0,0
12.12.2017 19:00:00 2,0 0,8 - - 11 6 - - SE 991,5 21 0 0,0
12.12.2017 18:00:00 1,2 0,4 - - 21 11 - - ESE 992,4 15 0 0,0
12.12.2017 17:00:00 0,7 -0,1 - - 21 11 - - ESE 993,7 23 0 0,0
12.12.2017 16:00:00 0,4 -1,0 - - 11 6 - - ESE 995,0 9 0 0,0
12.12.2017 15:00:00 0,5 -0,9 - - 2 1 - - E 996,0 45 0 0,0
12.12.2017 14:00:00 -0,1 -0,9 - - 15 8 - - E 997,1 45 0 0,0
12.12.2017 13:00:00 -1,0 -1,3 - - 16 9 - - ENE 998,6 30 0 0,0
12.12.2017 12:00:00 -3,1 -3,4 - - 13 7 - - ENE 1000,0 28 0 0,0
12.12.2017 11:00:00 -6,1 -6,6 - - 4 2 - - ESE 1001,4 25 0 0,0
12.12.2017 10:00:00 -7,0 -7,5 - - 4 2 - - S 1001,9 23 0 0,0
12.12.2017 09:00:00 -8,3 -8,8 3,7 5,0 4 2 - - E 1002,3 2,9 0 0,0
12.12.2017 08:00:00 -9,8 -10,6 - - 2 1 - - W 1003,0 22 0 0,0
12.12.2017 07:00:00 -8,9 -9,6 - - 4 2 - - W 1003,1 35 0 0,0
12.12.2017 06:00:00 -8,5 -9,2 - - 5 3 - - W 1003,2 30 0 0,0
12.12.2017 05:00:00 -8,5 -9,4 - - 2 1 - - W 1003,2 30 0 0,0
12.12.2017 04:00:00 -8,3 -9,3 - - 5 3 - - WSW 1003,1 30 0 0,0
12.12.2017 03:00:00 -5,9 -7,0 - - 9 5 - - W 1002,8 30 0 0,0
12.12.2017 02:00:00 -3,7 -4,6 - - 9 5 - - WNW 1002,9 35 0 0,0
12.12.2017 01:00:00 -2,7 -3,2 - - 8 4 - - W 1002,3 6 0 0,0
12.12.2017 00:00:00 -3,9 -4,5 - - 4 2 - - E 1002,0 40 - 0,0
11.12.2017 23:00:00 -5,5 -6,6 - - 5 3 - - W 1001,5 30 0 0,0
11.12.2017 22:00:00 -3,3 -4,7 - - 13 7 - - NW 1000,9 35 0 0,0
11.12.2017 21:00:00 -2,2 -3,5 - - 15 8 - - WNW 1000,9 45 0 0,0
11.12.2017 20:00:00 -0,7 -1,9 - - 22 12 - - WNW 1000,6 50 0 0,0
11.12.2017 19:00:00 -0,8 -1,8 - - 16 9 - - WNW 1000,0 45 0 0,0
11.12.2017 18:00:00 -1,3 -2,8 - - 11 6 - - NW 998,7 40 0 0,0
11.12.2017 17:00:00 -1,1 -2,6 - - 21 11 - - WNW 997,7 50 0 0,0
11.12.2017 16:00:00 -0,6 -1,8 - - 18 10 - - WNW 997,2 35 0 0,0
11.12.2017 15:00:00 -1,1 -2,3 - - 18 10 - - WNW 996,1 50 0 0,0
11.12.2017 14:00:00 0,1 -1,1 - - 16 9 - - W 995,2 45 42 0,0
11.12.2017 13:00:00 0,6 -0,8 - - 9 5 - - W 994,4 45 18 0,0
11.12.2017 12:00:00 0,8 -0,2 - - 18 10 - - WNW 993,7 45 0 0,0
11.12.2017 11:00:00 0,7 0,3 - - 18 10 - - NW 992,8 30 0 0,0
11.12.2017 10:00:00 0,7 0,4 - - 16 9 - - WNW 992,0 40 0 0,0
11.12.2017 09:00:00 0,6 0,5 3,9 5,2 13 7 - - WNW 991,1 30 0 0,0
11.12.2017 08:00:00 0,4 0,3 - - 18 10 - - WNW 990,2 50 0 0,0
11.12.2017 07:00:00 0,8 0,7 - - 5 3 - - N 989,3 2,4 0 0,0
11.12.2017 06:00:00 0,3 0,2 - - 16 9 - - WNW 988,4 13 0 0,0
11.12.2017 05:00:00 0,3 0,2 - - 16 9 - - WNW 987,6 12 0 0,0
11.12.2017 04:00:00 -0,5 -0,6 - - 21 11 - - WNW 987,1 30 0 0,0
11.12.2017 03:00:00 -1,1 -1,4 - - 11 6 - - W 986,5 19 0 0,0
11.12.2017 02:00:00 -0,2 -0,3 - - 16 9 - - WNW 985,5 3,5 0 0,0
11.12.2017 01:00:00 -1,2 -1,4 - - 15 8 - - WNW 985,0 12 0 0,0
11.12.2017 00:00:00 -1,1 -1,3 - - 9 5 - - WNW 984,5 28 - 0,0
10.12.2017 23:00:00 0,2 0,1 - - 16 9 - - WNW 983,4 1,7 0 0,0
10.12.2017 22:00:00 0,1 -0,1 - - 8 4 - - W 982,8 0,5 0 0,0
10.12.2017 21:00:00 0,1 -0,2 - - 11 6 - - W 982,2 1,4 0 0,0
10.12.2017 20:00:00 -0,8 -1,7 - - 13 7 - - W 982,1 40 0 0,0
10.12.2017 19:00:00 -0,7 -1,3 - - 11 6 - - W 982,1 50 0 0,0
10.12.2017 18:00:00 -1,1 -1,6 - - 18 10 - - WNW 982,0 45 0 0,0
10.12.2017 17:00:00 -4,0 -4,6 - - 5 3 - - WNW 982,5 50 0 0,0
10.12.2017 16:00:00 -2,8 -3,0 - - 4 2 - - W 982,4 35 0 0,0
10.12.2017 15:00:00 -5,6 -6,2 - - 4 2 - - ENE 983,1 10 30 0,0
10.12.2017 14:00:00 -9,1 -10,5 - - 5 3 - - W 984,1 6 60 0,0
10.12.2017 13:00:00 -7,3 -7,9 - - 2 1 - - ESE 984,6 0,2 42 0,0
10.12.2017 12:00:00 -9,9 -10,7 - - 0 0 - - N 985,6 29 6 0,0
10.12.2017 11:00:00 -8,9 -9,7 - - 4 2 - - N 986,1 0,3 0 0,0
10.12.2017 10:00:00 -8,4 -8,9 - - 4 2 - - WNW 986,7 2,0 0 0,0
10.12.2017 09:00:00 -9,7 -10,9 4,2 5,4 8 4 - - W 987,5 30 0 0,0
10.12.2017 08:00:00 -5,6 -6,0 - - 5 3 - - WSW 987,7 0,4 0 0,0
10.12.2017 07:00:00 -6,1 -6,3 - - 0 0 - - N 988,8 0,5 0 0,0
10.12.2017 06:00:00 -8,6 -9,4 - - 5 3 - - WNW 990,3 30 0 0,0
10.12.2017 05:00:00 -6,7 -7,3 - - 2 1 - - WNW 991,1 0,5 0 0,0
10.12.2017 04:00:00 -5,9 -6,8 - - 4 2 - - W 992,7 7 0 0,0
10.12.2017 03:00:00 -4,4 -4,8 - - 8 4 - - W 994,2 4,1 0 0,0
10.12.2017 02:00:00 -3,3 -3,8 - - 4 2 - - NW 995,6 4,3 0 0,0
10.12.2017 01:00:00 -2,0 -2,3 - - 13 7 - - W 996,6 1,1 0 0,0
10.12.2017 00:00:00 -2,1 -2,5 - - 15 8 - - W 997,8 4,5 - 0,0
09.12.2017 23:00:00 -2,1 -2,7 - - 5 3 - - WNW 999,0 21 0 0,0
09.12.2017 22:00:00 -2,1 -2,8 - - 11 6 - - W 1000,2 35 0 0,0
09.12.2017 21:00:00 -1,9 -2,3 - - 9 5 - - WSW 1001,3 28 0 0,0
09.12.2017 20:00:00 -2,0 -2,3 - - 11 6 - - W 1002,7 5 0 0,0
09.12.2017 19:00:00 -2,3 -2,8 - - 4 2 - - W 1004,4 0,5 0 0,0
09.12.2017 18:00:00 -1,7 -2,2 - - 18 10 - - W 1005,2 1,0 0 0,0
09.12.2017 17:00:00 -1,9 -2,6 - - 11 6 - - W 1005,7 22 0 0,0
09.12.2017 16:00:00 -1,3 -1,6 - - 13 7 - - W 1006,9 0,2 0 0,0
09.12.2017 15:00:00 -1,7 -2,2 - - 11 6 - - W 1007,7 45 0 0,0
09.12.2017 14:00:00 -1,2 -2,3 - - 15 8 - - W 1008,6 40 0 0,0
09.12.2017 13:00:00 -1,4 -1,9 - - 9 5 - - WNW 1009,7 40 0 0,0
09.12.2017 12:00:00 -1,3 -1,8 - - 9 5 - - W 1010,5 9 0 0,0
09.12.2017 11:00:00 -1,1 -1,6 - - 15 8 - - W 1011,1 2,5 0 0,0
09.12.2017 10:00:00 -0,3 -1,0 - - 18 10 - - NW 1011,9 3,8 0 0,0
09.12.2017 09:00:00 -1,0 -1,2 4,5 5,5 18 10 - - WNW 1012,4 2,7 0 0,0
09.12.2017 08:00:00 -1,9 -2,3 - - 13 7 - - WNW 1012,8 45 0 0,0
09.12.2017 07:00:00 -0,9 -1,1 - - 22 12 - - NW 1013,5 0,3 0 0,0
09.12.2017 06:00:00 -1,2 -1,4 - - 18 10 - - W 1013,8 9 0 0,0
09.12.2017 05:00:00 -1,3 -1,4 - - 21 11 48 26 NW 1014,3 40 0 0,0
09.12.2017 04:00:00 -0,5 -0,6 - - 22 12 - - WNW 1014,5 26 0 0,0
09.12.2017 03:00:00 -0,8 -0,9 - - 31 17 52 28 WNW 1015,0 0,5 0 0,0
09.12.2017 02:00:00 -0,9 -1,2 - - 35 19 50 27 NW 1015,4 0,7 0 0,0
09.12.2017 01:00:00 0,4 -1,4 - - 28 15 48 26 W 1015,3 9 0 0,0
09.12.2017 00:00:00 0,1 -1,7 - - 21 11 46 25 W 1015,8 19 - 0,0
08.12.2017 23:00:00 0,3 -1,3 - - 26 14 48 26 W 1015,7 14 0 0,0
08.12.2017 22:00:00 0,8 -1,4 - - 35 19 48 26 WNW 1015,5 19 0 0,0
08.12.2017 21:00:00 1,1 -1,7 - - 35 19 54 29 NNW 1015,6 16 0 0,0
08.12.2017 20:00:00 0,9 -2,3 - - 34 18 48 26 WNW 1015,2 18 0 0,0
08.12.2017 19:00:00 0,1 -1,1 - - 31 17 48 26 WNW 1015,5 1,6 0 0,0
08.12.2017 18:00:00 0,5 -1,5 - - 29 16 57 31 WNW 1014,7 3,6 0 0,0
08.12.2017 17:00:00 -0,1 -1,1 - - 31 17 50 27 WNW 1014,2 1,7 0 0,0
08.12.2017 16:00:00 -1,0 -1,8 - - 34 18 55 30 NW 1014,1 0,3 0 0,0
08.12.2017 15:00:00 0,1 -1,9 - - 42 23 61 33 WNW 1012,9 18 0 0,0
08.12.2017 14:00:00 -0,4 -1,9 - - 37 20 59 32 WNW 1012,5 8 6 0,0
08.12.2017 13:00:00 0,0 -3,5 - - 37 20 57 31 NW 1012,7 10 0 0,0
08.12.2017 12:00:00 -1,4 -4,0 - - 35 19 63 34 WNW 1012,4 40 0 0,0
08.12.2017 11:00:00 -1,6 -3,1 - - 46 25 68 37 WNW 1012,3 3,1 0 0,0
08.12.2017 10:00:00 -1,7 -2,7 - - 34 18 81 44 WNW 1011,4 26 0 0,0
08.12.2017 09:00:00 -0,7 -3,4 5,0 5,7 39 21 65 35 WNW 1010,8 2,7 0 0,0
08.12.2017 08:00:00 -0,7 -4,9 - - 37 20 67 36 WNW 1010,0 40 0 0,0
08.12.2017 07:00:00 0,2 -4,9 - - 50 27 74 40 NW 1009,4 13 0 0,0
08.12.2017 06:00:00 0,0 -4,1 - - 42 23 76 41 WNW 1008,4 30 0 0,0
08.12.2017 05:00:00 -0,9 -2,4 - - 44 24 80 43 WNW 1007,9 1,3 0 0,0
08.12.2017 04:00:00 0,3 -4,5 - - 41 22 78 42 WNW 1007,3 23 0 0,0
08.12.2017 03:00:00 -0,7 -4,5 - - 35 19 76 41 WNW 1007,1 28 0 0,0
08.12.2017 02:00:00 -0,7 -4,9 - - 39 21 74 40 NW 1006,7 30 0 0,0
08.12.2017 01:00:00 -0,2 -4,3 - - 39 21 67 36 NW 1006,0 9 0 0,0
08.12.2017 00:00:00 -0,6 -2,8 - - 34 18 68 37 NW 1005,4 13 - 0,0
07.12.2017 23:00:00 0,1 -2,5 - - 37 20 78 42 WNW 1004,6 11 0 0,0
07.12.2017 22:00:00 0,6 -2,2 - - 39 21 72 39 WNW 1003,9 15 0 0,0
07.12.2017 21:00:00 0,8 -2,3 - - 35 19 74 40 WNW 1002,8 28 0 0,0
07.12.2017 20:00:00 0,6 -1,2 - - 46 25 76 41 WNW 1002,2 13 0 0,0
07.12.2017 19:00:00 1,4 -2,9 - - 42 23 65 35 WNW 1001,4 19 0 0,0
07.12.2017 18:00:00 0,8 -0,5 - - 41 22 78 42 WNW 1000,7 2,8 0 0,2
07.12.2017 17:00:00 0,7 -0,7 - - 44 24 80 43 WNW 999,4 16 0 0,4
07.12.2017 16:00:00 1,8 -0,6 - - 48 26 85 46 NW 997,7 11 0 1,0
07.12.2017 15:00:00 1,4 -0,4 - - 52 28 87 47 WNW 997,1 13 0 0,6
07.12.2017 14:00:00 1,9 0,2 - - 59 32 93 50 WNW 995,6 2,0 0 1,4
07.12.2017 13:00:00 2,6 1,1 - - 46 25 93 50 WNW 993,2 20 0 0,4

tt = temperature
td = dewpoint
tt -20cm = temperature -20cm
tt -100cm = temperature -100cm
ff = wind speed
fx = gusts
dd = wind direction
ppp = reduced air pressure
vv = visibility
sd = sunshine duration
rr = precipitation

Next stations